CW8815 Weather Reports


time (UTC)temp
C
wind
direction
speed
KPH
gust
KPH
rain 1hr
cm
rain 24hr
cm
rain mn
cm
humidity
%
barometer
mb
20260503070407 14 198 0.0 4.8 0.00 0.00 0.00 50 1009.3
20260503060232 14 217 0.0 0.0 0.00 0.00 0.00 51 1009.1
20260503054707 15 217 0.0 4.8 0.00 0.00 0.00 51 1009.1
20260503053701 15 217 1.6 6.4 0.00 0.00 0.00 52 1009.1
20260503053147 15 217 1.6 6.4 0.00 0.00 0.00 52 1009.2
20260503052647 15 217 0.0 6.4 0.00 0.00 0.00 52 1009.2
20260503052141 15 217 0.0 1.6 0.00 0.00 0.00 52 1009.3
20260503051630 15 217 0.0 0.0 0.00 0.00 0.00 52 1009.2
20260503051128 15 217 0.0 0.0 0.00 0.00 0.00 53 1009.3
20260503050610 15 217 0.0 0.0 0.00 0.00 0.00 51 1009.3
20260503045600 15 217 0.0 0.0 0.00 0.00 0.00 52 1009.1
20260503045054 15 217 0.0 0.0 0.00 0.00 0.00 53 1009.2
20260503044513 15 217 0.0 0.0 0.00 0.00 0.00 53 1009.2
20260503044011 15 217 0.0 0.0 0.00 0.00 0.00 53 1009.2
20260503042438 15 217 0.0 0.0 0.00 0.00 0.00 51 1009.2
20260503041927 15 217 0.0 0.0 0.00 0.00 0.00 51 1009.0
20260503041422 15 217 0.0 0.0 0.00 0.00 0.00 51 1009.1
20260503040922 15 217 0.0 0.0 0.00 0.00 0.00 51 1009.0
20260503040403 15 217 0.0 0.0 0.00 0.00 0.00 50 1009.0
20260503035332 15 217 0.0 0.0 0.00 0.00 0.00 50 1008.9
20260503034824 15 217 0.0 0.0 0.00 0.00 0.00 51 1009.0
20260503033812 15 217 1.6 6.4 0.00 0.00 0.00 50 1009.0
20260503032805 15 217 0.0 6.4 0.00 0.00 0.00 52 1008.9
20260503032304 15 217 0.0 0.0 0.00 0.00 0.00 53 1008.7
20260503031747 15 217 0.0 0.0 0.00 0.00 0.00 53 1008.6
20260503031242 16 217 0.0 0.0 0.00 0.00 0.00 54 1008.5
20260503030732 16 217 0.0 0.0 0.00 0.00 0.00 53 1008.5
20260503030226 16 217 0.0 0.0 0.00 0.00 0.00 53 1008.6
20260503025727 16 217 0.0 0.0 0.00 0.00 0.00 52 1008.6
20260503025211 16 217 0.0 0.0 0.00 0.00 0.00 54 1008.6
20260503024656 16 217 0.0 0.0 0.00 0.00 0.00 54 1008.6
20260503024156 16 217 0.0 0.0 0.00 0.00 0.00 54 1008.7
20260503023650 17 217 0.0 0.0 0.00 0.00 0.00 54 1008.5
20260503023144 17 217 0.0 0.0 0.00 0.00 0.00 54 1008.5
20260503022632 17 217 0.0 0.0 0.00 0.00 0.00 55 1008.5
20260503022128 17 217 0.0 0.0 0.00 0.00 0.00 54 1008.5
20260503021607 17 217 0.0 0.0 0.00 0.00 0.00 53 1008.4
20260503021106 17 217 0.0 0.0 0.00 0.00 0.00 51 1008.4
20260503020603 18 217 0.0 0.0 0.00 0.00 0.00 50 1008.4
20260503020106 18 217 0.0 0.0 0.00 0.00 0.00 51 1008.5
20260503015555 18 217 0.0 0.0 0.00 0.00 0.00 52 1008.6
20260503015041 19 217 0.0 0.0 0.00 0.00 0.00 51 1008.6
20260503014024 20 217 0.0 0.0 0.00 0.00 0.00 49 1008.7
20260503013518 20 217 0.0 0.0 0.00 0.00 0.00 44 1008.5
20260503013015 20 217 0.0 0.0 0.00 0.00 0.00 42 1008.5
20260503012508 20 217 0.0 0.0 0.00 0.00 0.00 43 1008.4
20260503011959 20 217 0.0 0.0 0.00 0.00 0.00 42 1008.3
20260503011450 21 217 0.0 0.0 0.00 0.00 0.00 42 1008.3
20260503010940 21 217 0.0 4.8 0.00 0.00 0.00 41 1008.5
20260503005911 21 217 3.2 8.0 0.00 0.00 0.00 34 1008.5
20260503005408 22 217 1.6 8.0 0.00 0.00 0.00 32 1008.5
20260503004401 22 234 1.6 8.0 0.00 0.00 0.00 32 1008.6
20260503003827 22 235 3.2 8.0 0.00 0.00 0.00 32 1008.6
20260503003319 22 226 3.2 6.4 0.00 0.00 0.00 32 1008.7
20260503002804 22 227 1.6 6.4 0.00 0.00 0.00 32 1008.8
20260503002253 22 244 0.0 6.4 0.00 0.00 0.00 32 1008.8
20260503001744 22 225 1.6 8.0 0.00 0.00 0.00 32 1008.9
20260503001214 23 227 1.6 11.3 0.00 0.00 0.00 33 1008.8
20260503000215 22 269 1.6 8.0 0.00 0.00 0.00 32 1008.7
20260502235711 22 180 1.6 8.0 0.00 0.00 0.00 30 1008.7
20260502235158 23 121 1.6 6.4 0.00 0.00 0.00 34 1008.8
20260502234648 23 134 1.6 8.0 0.00 0.00 0.00 31 1008.7
20260502234139 23 253 1.6 9.7 0.00 0.00 0.00 31 1008.6
20260502233623 23 221 0.0 9.7 0.00 0.00 0.00 32 1008.7
20260502233113 23 273 0.0 4.8 0.00 0.00 0.00 31 1008.9
20260502232605 23 183 1.6 11.3 0.00 0.00 0.00 33 1008.9
20260502232105 23 182 1.6 11.3 0.00 0.00 0.00 31 1008.9
20260502231559 23 209 1.6 9.7 0.00 0.00 0.00 31 1009.0
20260502231043 23 228 1.6 9.7 0.00 0.00 0.00 31 1009.0
20260502230531 23 269 3.2 9.7 0.00 0.00 0.00 31 1009.1
20260502230023 23 191 1.6 8.0 0.00 0.00 0.00 32 1009.0
20260502225507 23 248 0.0 6.4 0.00 0.00 0.00 35 1009.2
20260502225007 23 275 0.0 11.3 0.00 0.00 0.00 36 1009.4
20260502224500 23 284 0.0 11.3 0.00 0.00 0.00 34 1009.3
20260502223958 22 49 0.0 6.4 0.00 0.00 0.00 32 1009.5
20260502223421 22 58 1.6 8.0 0.00 0.00 0.00 33 1009.7
20260502222916 22 76 1.6 8.0 0.00 0.00 0.00 29 1009.6
20260502222406 23 38 1.6 11.3 0.00 0.00 0.00 30 1009.7
20260502221903 23 38 1.6 11.3 0.00 0.00 0.00 31 1009.9
20260502221345 23 165 1.6 6.4 0.00 0.00 0.00 31 1009.8
20260502220333 23 171 3.2 11.3 0.00 0.00 0.00 33 1009.9
20260502215824 22 169 3.2 8.0 0.00 0.00 0.00 37 1010.2
20260502215314 22 178 3.2 11.3 0.00 0.00 0.00 36 1010.0
20260502214250 22 172 3.2 11.3 0.00 0.00 0.00 37 1010.0
20260502213739 22 180 3.2 11.3 0.00 0.00 0.00 34 1010.0
20260502213237 22 185 4.8 11.3 0.00 0.00 0.00 34 1010.1
20260502212726 22 186 3.2 11.3 0.00 0.00 0.00 34 1010.2
20260502212215 22 223 1.6 11.3 0.00 0.00 0.00 37 1010.3
20260502211712 22 176 1.6 11.3 0.00 0.00 0.00 35 1010.3
20260502211212 22 192 1.6 11.3 0.00 0.00 0.00 35 1010.3
20260502210706 22 193 1.6 11.3 0.00 0.00 0.00 33 1010.3
20260502210159 22 194 3.2 9.7 0.00 0.00 0.00 36 1010.2
20260502205650 22 207 3.2 11.3 0.00 0.00 0.00 37 1010.3
20260502205141 22 210 4.8 11.3 0.00 0.00 0.00 36 1010.3
20260502204116 22 138 3.2 11.3 0.00 0.00 0.00 33 1010.4
20260502203052 22 177 6.4 17.7 0.00 0.00 0.00 36 1010.4
20260502202541 23 190 6.4 16.1 0.00 0.00 0.00 35 1010.5
20260502202040 23 169 6.4 19.3 0.00 0.00 0.00 39 1010.6
20260502201533 22 174 4.8 17.7 0.00 0.00 0.00 36 1010.6
20260502201027 22 158 4.8 17.7 0.00 0.00 0.00 36 1010.7
20260502200526 22 207 4.8 11.3 0.00 0.00 0.00 35 1010.6
20260502200021 22 108 4.8 14.5 0.00 0.00 0.00 35 1010.6
20260502195518 22 209 6.4 14.5 0.00 0.00 0.00 37 1010.6
20260502194518 22 168 9.7 19.3 0.00 0.00 0.00 37 1010.7
20260502193530 21 169 6.4 16.1 0.00 0.00 0.00 41 1010.9
20260502193013 21 169 8.0 16.1 0.00 0.00 0.00 40 1011.0
20260502192514 22 186 6.4 16.1 0.00 0.00 0.00 37 1011.0
20260502192015 22 186 4.8 16.1 0.00 0.00 0.00 38 1010.9
20260502190501 22 137 4.8 19.3 0.00 0.00 0.00 39 1010.9
20260502185957 21 154 6.4 19.3 0.00 0.00 0.00 36 1011.1
20260502185459 21 172 6.4 17.7 0.00 0.00 0.00 35 1011.2
20260502184955 21 161 4.8 11.3 0.00 0.00 0.00 38 1011.2
20260502184455 21 157 6.4 14.5 0.00 0.00 0.00 34 1011.3
20260502183958 21 186 4.8 16.1 0.00 0.00 0.00 40 1011.3
20260502183455 21 219 3.2 16.1 0.00 0.00 0.00 41 1011.3
20260502183000 21 146 3.2 14.5 0.00 0.00 0.00 38 1011.4
20260502182445 21 172 4.8 16.1 0.00 0.00 0.00 39 1011.4
20260502181947 21 180 4.8 16.1 0.00 0.00 0.00 42 1011.4
20260502180948 20 126 4.8 11.3 0.00 0.00 0.00 43 1011.4
20260502180434 20 134 3.2 11.3 0.00 0.00 0.00 44 1011.4
20260502170259 18 186 3.2 9.7 0.00 0.00 0.00 48 1011.7
20260502164219 17 155 0.0 4.8 0.00 0.00 0.00 51 1011.6
20260502163710 17 155 0.0 4.8 0.00 0.00 0.00 51 1011.7
20260502163207 17 155 0.0 1.6 0.00 0.00 0.00 51 1011.7
20260502162708 17 155 0.0 6.4 0.00 0.00 0.00 51 1011.6
20260502162207 16 155 1.6 6.4 0.00 0.00 0.00 50 1011.7
20260502161637 16 155 0.0 8.0 0.00 0.00 0.00 52 1011.7
20260502160611 16 155 1.6 9.7 0.00 0.00 0.00 51 1011.7
20260502160113 16 149 3.2 11.3 0.00 0.00 0.00 51 1011.7
20260502151524 15 103 3.2 8.0 0.00 0.00 0.00 56 1011.4
20260502151026 15 107 1.6 8.0 0.00 0.00 0.00 53 1011.4
20260502150523 14 108 1.6 8.0 0.00 0.00 0.00 54 1011.4
20260502130650 13 86 0.0 4.8 0.00 0.00 0.00 49 1011.0
20260502130145 12 86 0.0 3.2 0.00 0.00 0.00 52 1011.0
20260502123101 13 87 0.0 6.4 0.00 0.00 0.00 49 1011.0
20260502122557 13 86 0.0 1.6 0.00 0.00 0.00 48 1011.0
20260502122044 13 86 0.0 1.6 0.00 0.00 0.00 48 1011.0
20260502121542 13 86 0.0 1.6 0.00 0.00 0.00 48 1011.0
20260502114907 14 84 0.0 3.2 0.00 0.00 0.00 47 1011.1
20260502114359 14 84 0.0 1.6 0.00 0.00 0.00 48 1011.1
20260502113852 14 84 0.0 1.6 0.00 0.00 0.00 48 1011.2
20260502113345 14 85 1.6 6.4 0.00 0.00 0.00 49 1011.2
20260502112340 14 77 0.0 4.8 0.00 0.00 0.00 50 1011.1
20260502111834 14 76 0.0 1.6 0.00 0.00 0.00 50 1011.2
20260502111319 14 76 0.0 6.4 0.00 0.00 0.00 52 1011.2
20260502110314 14 74 0.0 1.6 0.00 0.00 0.00 51 1011.1
20260502105807 15 73 0.0 0.0 0.00 0.00 0.00 50 1011.1
20260502104743 15 73 0.0 6.4 0.00 0.00 0.00 47 1011.1
20260502104224 15 57 0.0 3.2 0.00 0.00 0.00 48 1011.1
20260502103722 15 57 0.0 0.0 0.00 0.00 0.00 49 1011.1
20260502103213 15 57 0.0 3.2 0.00 0.00 0.00 49 1011.1
20260502102646 15 57 0.0 6.4 0.00 0.00 0.00 49 1011.0
20260502102144 15 56 0.0 6.4 0.00 0.00 0.00 48 1011.1
20260502101059 15 53 0.0 4.8 0.00 0.00 0.00 48 1011.1
20260502091358 15 348 0.0 0.0 0.00 0.00 0.00 44 1011.3
20260502090903 15 348 0.0 0.0 0.00 0.00 0.00 45 1011.3
20260502090330 15 348 0.0 0.0 0.00 0.00 0.00 46 1011.4
20260502071333 15 327 0.0 0.0 0.00 0.00 0.00 45 1011.8
20260502070820 15 327 0.0 0.0 0.00 0.00 0.00 45 1011.8